Location: ?????????
(53.2086°N, 54.0693°E)
Time: 06:45:18
(UTC+00:00)

Cosmos 2278 Rocket - Pass Details

Date: 08 December 2019
Orbit: 843 x 844 km, 71.0° (Epoch: 26 January)

Event Time Altitude Azimuth Distance (km) Brightness Sun altitude
Rises 14:08:29 0° 326° (NW) 3,414 5.6 -17.0°
Reaches altitude 10° 14:10:58 10° 322° (NW) 2,474 4.9 -17.4°
Maximum altitude 14:16:30 55° 246° (WSW) 1,008 2.9 -18.2°
Drops below altitude 10° 14:21:59 10° 170° (S) 2,458 4.6 -19.0°
Sets 14:24:27 0° 166° (SSE) 3,388 5.3 -19.3°
